Location: Newark
(49.8348°N, 24.0280°E)
Time: 14:40:26
(UTC+00:00)

Transit 2A - Pass Details

Date: 23 January 2020
Orbit: 600 x 959 km, 66.7° (Epoch: 22 February)

Event Time Altitude Azimuth Distance (km) Brightness Sun altitude
Rises 04:15:40 0° 316° (NW) 2,973 - -18.0°
Reaches altitude 10° 04:18:04 10° 306° (NW) 2,103 - -17.6°
Exits shadow 04:21:26 29° 263° (W) 1,271 6.6 -17.1°
Maximum altitude 04:22:14 31° 245° (WSW) 1,239 6.6 -16.9°
Drops below altitude 10° 04:26:44 10° 184° (S) 2,281 8.5 -16.2°
Sets 04:29:28 0° 175° (S) 3,269 9.5 -15.8°
